Погода в Бельдеже № 3

Россия / Омская область     54°23′44″N   71°45′43″E
темп.,
°C
ветер,
м/с
пор.,
м/с
влажн.,
%
обл.,
%
осадки,
мм/ч
давл.,
гПа
погр.,
м
22 октября, пт
пт2200:00+2юз71189100 0.1 10051074
03:00+2зюз81495100 0.5 1007710
06:00+1з7118788 0.7 1009860
09:00+1зюз7126972 0.0 1011775
12:00+4юз81253100 0.0 10121167
15:00+5юз91351100 0.0 10111438
18:00+3ююз8147373 0.1 10121069
21:00+3юз71294100 0.0 1012877
23 октября, сб
сб2300:00+4юз71492100 0.0 1012602
03:00+5ююз81588100 0.0 1011579
06:00+6ююз91686100 1.2 1009810
09:00+7юз91673100 0.0 1009889
12:00+9зюз9155989 0.0 1009907
15:00+11зюз9155760 0.0 1010941
18:00+10зюз814630 0.0 1012630
21:00+9зюз8156944 0.0 1013672
24 октября, вс
вс2400:00+8зюз815756 0.0 1014502
03:00+8зюз7148042 0.0 1015467
06:00+7зюз51286100 0.0 1017322
09:00+7зюз6128862 0.0 1018342
12:00+10зюз6106835 0.0 1019663
15:00+12зюз6958100 0.0 1019998
18:00+11юз4863100 0.0 1019219
21:00+10ю51368100 0.0 1017362
25 октября, пн
пн2500:00+10ююз71574100 0.0 1015530
03:00+9юз71656100 0.0 1014515
06:00+9юз71551100 0.0 1013464
09:00+8юз61451100 0.0 1014444
12:00+10зюз61045100 0.0 1014621
15:00+12зюз5843100 0.0 1015779
18:00+10юз2251100 0.0 101524
21:00+10ю3454100 0.0 101475
26 октября, вт
вт2600:00+10ююз41055100 0.0 1012257
03:00+8юз3976100 0.8 1011355
06:00+8ю3562100 0.9 1008111
09:00+8ююз41173100 0.6 1007412
12:00+9зсз7964100 0.7 1007893
15:00+4сз71192100 0.3 1010771
18:00+3сз9126988 0.4 10131073
21:00+1сз711575 0.0 10181038